Regional Weather Roundup
Issued by NWS

Home | Current Version | Previous Version | Text Only | Print | Product List | Glossary On
Versions: 1 2 3 4 5 6 7 8 9 10 11 12 13 14 15 16 17 18 19 20 21 22 23 24 25 26 27 28 29 30 31 32 33 34 35 36 37 38 39 40 41 42 43 44 45 46 47 48 49 50
000
ASCA44 KEWX 221920
RWRMX

LATIN AMERICA AND CARIBBEAN REGIONAL WEATHER ROUNDUP
NATIONAL WEATHER SERVICE AUSTIN/SAN ANTONIO TX
200 PM CDT FRI AUG 22 2014

NOTE: "FAIR" INDICATED FEW OR NO CLOUDS BELOW 12,000 FEET WITH NO
SIGNIFICANT WEATHER AND/OR OBSTRUCTIONS TO VISIBILITY.

BAJA CALIFORNIA

CITY           SKY/WX    TMP DP  RH WIND       PRES   REMARKS
LORETO         PTSUNNY   91  70  49 NE12      29.87F HX  97
LA PAZ         MOSUNNY   93  64  38 N9        29.92  HX  95
MEXICALI       SUNNY     86  61  42 NE7       29.93
S.J. DEL CABO  PTSUNNY   93  66  40 N12       29.91F HX  96
TIJUANA        SUNNY     77  61  57 W9        30.00R

NORTHWESTERN MEXICO

CITY           SKY/WX    TMP DP  RH WIND       PRES   REMARKS
CULIACAN       PTSUNNY   95  75  52 N6        29.90  HX 107
DURANGO        MOSUNNY   72  55  56 N5        30.27F
GUAYMAS        MOSUNNY   93  77  59 CALM      29.87  HX 107
HERMOSILLO       N/A    N/A N/A N/A MISG        N/A
CD. JUAREZ     CLOUDY    75  68  78 S7        30.10
LOS MOCHIS     PTSUNNY   88  70  55 SE5       29.92F HX  92
OBREGON        MOSUNNY   86  73  66 SW2       29.90  HX  93

NORTHEASTERN MEXICO

CITY           SKY/WX    TMP DP  RH WIND       PRES   REMARKS
CHIHUAHUA      PTSUNNY   81  55  41 CALM      30.16
MATAMOROS      PTSUNNY   95  72  46 SE17      30.04  HX 103
MONTERREY      MOSUNNY   95  52  23 SE20      29.98F HX  92
NUEVO LAREDO   SUNNY     99  57  25 S14       29.97  HX  97
PIEDRAS NEGRAS SUNNY     99  57  25 SE12      29.99F HX  97
REYNOSA        PTSUNNY   93  59  31 SE9G21    29.99  HX  92
SALTILLO       MOSUNNY   88  48  25 SE6       30.21F
TORREON        MOSUNNY   84  50  30 CALM      30.12F
CD. VICTORIA   MOSUNNY   93  55  27 SE13      30.03  HX  91

WESTERN MEXICO

CITY           SKY/WX    TMP DP  RH WIND       PRES   REMARKS
AGUASCALIENTES PTSUNNY   72  46  40 S6        30.29
COLIMA         CLOUDY    82  70  65 NE9       30.00F
DEL BAJIO      PTSUNNY   73  54  49 CALM      30.31F
GUADALAJARA    CLOUDY    73  59  60 CALM      30.20
MANZANILLO     PTSUNNY   90  75  62 SW12      29.82S HX 100
MAZATLAN       MOSUNNY   88  75  66 SW9       29.86F HX  97
P. VALLARTA    CLOUDY    88  72  58 S6        29.90F HX  94
URUAPAN        CLOUDY    73  59  60 S9        30.20F
ZACATECAS        N/A    N/A N/A N/A MISG        N/A

CENTRAL MEXICO

CITY           SKY/WX    TMP DP  RH WIND       PRES   REMARKS
CUERNAVACA     PTSUNNY   79  48  34 CALM      30.17F
MEXICO CITY    CLOUDY    68  43  40 SE6       30.35F
MORELIA        PTSUNNY   73  59  60 CALM      30.26
POZA RICA      CLOUDY    90  79  70 E7          N/A  HX 105
PUEBLA         CLOUDY    66  45  45 SW9       30.39F
QUERETARO      PTSUNNY   77  48  36 SW9       30.34F
S. LUIS POTOSI MOSUNNY   73  45  35 E17       30.29F
TAMPICO        PTSUNNY   84  72  65 CALM      30.03F
TOLUCA         CLOUDY    64  41  42 SW3       30.41F

SOUTHERN MEXICO

CITY           SKY/WX    TMP DP  RH WIND       PRES   REMARKS
ACAPULCO       CLOUDY    88  75  66 E16       29.90S HX  97
B. DE HUATULCO CLOUDY    90  75  62 CALM      29.95  HX 100
OAXACA         PTSUNNY   79  54  41 E12       30.22F
P. ESCONDIDO   CLOUDY    84  77  79 SE17      30.06S HX  94
VERACRUZ       PTSUNNY   84  75  74 NW12      30.00F HX  92
ZIHUATANEJO    PTSUNNY   90  77  66 SE6       29.89F HX 102

YUCATAN PENINSULA

CITY           SKY/WX    TMP DP  RH WIND       PRES   REMARKS
CAMPECHE       MOSUNNY   91  75  59 E6        29.94F HX 102
CANCUN         PTSUNNY   90  77  66 SE10      29.99F HX 102
CHETUMAL       MOSUNNY   90  75  62 E12       29.94F HX 100
CD. DEL CARMEN PTSUNNY  N/A N/A N/A SE12      29.95
COZUMEL        PTSUNNY   86  77  74 NE16      29.98F HX  97
MERIDA         PTSUNNY   91  72  52 E8        29.97F HX  98
MINATITLAN     PTSUNNY   86  68  54 N12       29.95
TAPACHULA      PTSUNNY   86  75  70 W12       29.93F HX  95
TUX. GUTIERREZ PTSUNNY   88  66  48 S7        29.97F HX  90
VILLAHERMOSA   PTSUNNY   90  72  55 NE12      29.96F HX  96

CENTRAL AMERICA

CITY           SKY/WX    TMP DP  RH WIND       PRES   REMARKS
BELIZE CITY    PTSUNNY   86  77  74 E7        29.95F HX  97
MANAGUA        PTCLDY    91  72  52 NE12      29.83F HX  98

CARIBBEAN

CITY           SKY/WX    TMP DP  RH WIND       PRES   REMARKS
ARUBA          MOSUNNY   91  75  59 NE9       29.74F HX 102
KINGSTON       MOSUNNY   88  77  70 S9        29.83F HX 100
NASSAU         MOSUNNY   88  75  66 NE10      30.03F THUNDER HX  97
SAN JUAN       RAIN      79  77  94 SE5       29.84F FOG
SANTO DOMINGO  MOSUNNY   86  77  74 N7        29.77F HX  97
ST. KITTS      MOSUNNY   86  75  70 S13       29.89S HX  95
ST. MAARTEN    MOSUNNY   84  75  74 SE17      29.89S HX  92

$$



USA.gov is the U.S. government's official web portal to all federal, state and local government web resources and services.